Location: Tierra del Sol
(32.6128°N, 116.3319°W)
Time: 11:36:39
(UTC-07:00)

Daily predictions for brighter satellites

Satellite Brightness Start Highest point End
(mag) Time Altitude Azimuth Time Altitude Azimuth Time Altitude Azimuth
Cosmos 1570 Rocket 4.1 19:32:54 10° S 19:38:04 55° ESE 19:43:13 10° NNE
Cosmos 2227 Rocket 3.4 19:36:43 10° N 19:41:10 23° ENE 19:45:35 10° ESE
Cosmos 1346 Rocket 4.1 19:38:05 10° NNE 19:41:11 22° ENE 19:44:17 10° SE
NOSS 7 (E) 4.4 19:37:53 10° SSW 19:41:37 85° ESE 19:44:58 10° NNE
Cosmos 1536 3.0 19:38:30 10° S 19:42:29 79° W 19:46:30 10° N
ALOS 3.0 19:43:22 10° SE 19:47:33 34° ENE 19:51:44 10° N
Meteor 1-5 Rocket 4.2 19:44:17 10° S 19:49:27 58° E 19:54:46 10° NNE
H-2A R/B 3.9 19:46:01 10° WSW 19:49:52 48° S 20:07:29 12° ESE
NOSS 7 (H) 4.4 19:47:48 10° SSW 19:51:12 54° ESE 19:54:26 10° NE
Cosmos 2239 Rocket 4.5 19:46:46 10° S 19:53:00 84° E 19:59:14 10° N
BREEZE-M DEB (TANK) 3.7 19:42:07 10° NW 19:54:06 69° SW 19:57:37 10° SE
Orbus 7S 4.4 19:45:53 10° W 19:54:07 47° S 19:57:02 12° ESE
Resurs 01 Rocket 1.8 19:51:14 10° S 19:55:39 81° W 20:00:06 10° NNW
USA 186 3.1 19:53:25 10° SE 19:55:58 21° ENE 19:58:24 10° NNE
Cosmos 2297 Rocket 3.5 19:52:15 10° N 19:56:37 22° ENE 20:00:22 12° ESE
ATLAS 2A CENTAUR R/B 2.9 19:56:27 10° W 20:01:31 23° SSW 20:03:43 10° SSE
Cosmos 1934 Rocket 3.9 19:55:47 10° S 20:01:52 76° E 20:08:04 10° N
Delta 2 Rocket 4.1 19:57:35 10° WNW 20:03:20 75° N 20:07:51 14° E
Cosmos 1544 Rocket 3.6 19:59:46 10° S 20:04:08 83° W 20:08:33 10° N
Cosmos 968 Rocket 4.2 20:00:24 10° NNW 20:05:24 55° WSW 20:10:21 10° S
DELTA 2 R/B (1) 4.5 20:01:21 10° WNW 20:06:38 42° N 20:11:47 10° ENE
ERS-1 Rocket 4.4 20:07:57 15° ESE 20:10:20 20° ENE 20:13:58 10° NNE
OTV 4 1.6 20:08:00 10° WNW 20:10:46 34° NNE 20:12:40 17° ENE
Tiangong 1 3.8 20:15:32 10° NNW 20:17:01 13° N 20:18:29 10° NNE
Lacrosse 5 4.0 20:22:27 10° N 20:24:55 13° NE 20:27:19 10° ENE
Cosmos 1975 2.8 20:24:20 10° S 20:28:22 61° E 20:32:24 10° NNE
Cosmos 1697 Rocket 2.9 20:24:19 10° S 20:29:42 47° ESE 20:35:06 10° NNE
Cosmos 468 Rocket 4.1 20:30:09 10° S 20:35:04 50° ESE 20:40:00 10° NNE
H-2A R/B 2.9 20:32:28 12° S 20:36:03 76° W 20:39:58 10° NNW
ATLAS 3B CENTAUR R/B 2.3 20:35:03 10° SW 20:35:36 13° SW 20:35:36 13° SW
Okean 2 4.4 20:33:51 10° NNW 20:37:52 48° W 20:41:50 10° SSW
SL-24 R/B - RUBIN 2 4.3 20:32:52 10° SSW 20:38:29 85° WNW 20:44:52 10° NNE
Lacrosse 5 rocket 2.0 20:37:34 10° NNW 20:40:53 31° NE 20:41:15 30° ENE
CZ-4 DEB 3.5 20:44:01 36° NE 20:44:01 36° NE 20:46:25 10° N
Cosmos 1814 Rocket 4.1 20:39:17 10° S 20:44:26 52° ESE 20:49:36 10° NNE
Cosmos 2173 Rocket 4.4 20:40:49 20° SSE 20:44:47 43° E 20:50:42 10° NNE
Cosmos 1605 Rocket 4.5 20:42:42 10° SSW 20:49:00 63° W 20:55:15 10° N
Cosmos 1980 Rocket 2.4 20:47:00 10° S 20:52:19 44° ESE 20:57:41 10° NE
YAOGAN 11 4.1 20:51:41 43° SE 20:52:57 63° ENE 20:57:23 10° N
Cosmos 2100 Rocket 4.0 20:51:47 16° SSE 20:56:54 61° E 21:03:02 10° NNE
SJ-11-01 4.2 20:57:35 46° SE 20:58:55 72° ENE 21:03:36 10° N
H-2A R/B 3.3 21:00:48 25° NE 21:00:48 25° NE 21:03:17 10° N
Cosmos 2061 Rocket 4.0 20:57:18 24° SSE 21:01:07 59° E 21:07:17 10° NNE
Cosmos 1939 Rocket 3.1 21:02:42 55° ENE 21:02:42 55° ENE 21:06:32 10° N
Hubble Space Telescope 2.5 21:01:30 10° WSW 21:04:28 21° SSW 21:04:28 21° SSW
Cosmos 1461 3.1 21:00:47 10° NW 21:04:43 57° WSW 21:05:19 50° SSW
Cosmos 1626 Rocket 4.0 21:03:58 10° NNW 21:08:17 60° W 21:10:04 33° SSW
OAO 2 Rocket 3.5 21:05:43 10° W 21:10:44 67° N 21:11:59 48° ENE
Cosmos 1500 3.9 21:12:18 35° SW 21:13:29 51° W 21:17:09 10° N
NOSS 3-4 (A) 4.5 21:08:46 10° NW 21:15:40 52° WSW 21:20:20 23° S
NOSS 3-4 (C) 4.5 21:08:53 10° NW 21:15:48 52° WSW 21:20:24 23° S
Cosmos 2298 Rocket 3.9 21:11:04 10° NNW 21:16:23 79° ENE 21:17:03 67° SE
Cosmos 1602 Rocket 4.5 21:12:55 10° NNW 21:17:11 46° W 21:19:01 29° SSW
deb Chang Zheng 4 3.8 21:13:09 10° NNE 21:16:53 61° NE 21:16:53 61° NE
Envisat 2.8 21:17:38 70° SE 21:18:06 77° ENE 21:23:11 10° N
ASTEX 1 4.3 21:15:39 10° NNE 21:18:51 35° NE 21:18:51 35° NE
Nimbus 7 Rocket 4.3 21:18:35 10° NNE 21:24:40 83° ESE 21:27:20 36° S
Cosmos 2227 Rocket 3.3 21:20:04 10° NW 21:25:17 40° WSW 21:28:07 24° SSW
Cosmos 1937 Rocket 3.6 21:21:57 10° N 21:26:44 60° NE 21:26:44 60° NE
Cosmos 2084 4.3 21:25:08 10° NNW 21:28:01 42° N 21:28:01 42° N
Cosmos 1459 Rocket 4.0 21:28:00 26° SSW 21:31:34 73° W 21:37:38 10° N
RESURS DK-1 3.9 21:31:03 10° NNW 21:33:15 29° N 21:33:15 29° N
Cosmos 2098 Rocket 4.1 21:39:06 67° E 21:39:06 67° E 21:45:16 10° NNE
Cosmos 2297 Rocket 3.1 21:35:29 10° NW 21:40:46 42° WSW 21:42:12 35° SW
Cosmos 2150 Rocket 4.2 21:37:39 10° NNW 21:42:32 64° W 21:42:32 64° W
ERS-1 Rocket 4.1 21:47:58 34° WSW 21:48:49 37° W 21:53:27 10° NNW
DELTA 2 R/B (1) 4.0 21:47:57 10° WNW 21:52:32 60° NW 21:52:32 60° NW
Milstar 3 Cent rocket 3.8 21:41:50 10° W 22:01:06 68° SSW 22:03:03 60° SSE
Cosmos 1763 Rocket 4.5 22:03:14 43° NW 22:03:14 43° NW 22:07:24 10° N
SPOT 5 4.2 22:09:27 39° NW 22:09:27 39° NW 22:12:51 10° NNW
Lacrosse 5 3.2 22:03:33 10° NW 22:06:31 36° NNW 22:06:31 36° NNW
SL-16 R/B 4.4 22:24:36 17° NNE 22:24:36 17° NNE 22:25:48 10° NNE
USA 215 4.3 22:35:05 37° NNE 22:35:05 37° NNE 22:39:58 10° NNW
Cosmos 1980 Rocket 4.4 22:32:12 10° WSW 22:36:28 22° WNW 22:40:47 10° N
Cosmos 2263 Rocket 4.5 23:03:50 10° NNW 23:05:14 18° N 23:05:14 18° N
